STARLINK-34238, 65415

Orbit data source: Space-Track

STARLINK-34238, 65415 is a payload satellite owned by SpaceX/Seattle (US) in LEO that was launched on Sun, 31 Aug 2025 UTC via an FALCON 9 launch vehicle from the Air Force Eastern Test Range (AFETR). Payload-class satellites include a variety of spacecraft equipped with specific instruments for various scientific and technological missions. These include communications satellites like Starlink; space stations such as the ISS; scientific satellites like the Hubble; Earth observation satellites from companies like Planet Labs, Umbra, and HawkEye 360; GPS; miniature CubeSats for education and research; and military/defense satellites.

Loading next visibility...
Identifier
65415, 2025-192M
Orbit
LEO
Country
Flag of USUS
Related business
Manufacturer
SpaceX/Seattle
Mission
Operational Commercial Communications
Bus & Motor
STARLINK V2MO, Unknown motor
Mass
575 kg wet, ~530 kg dry
Launch date (UTC)
2025-08-31 (10 months ago)
Launch vehicle
FALCON 9
Launch site
Air Force Eastern Test Range (AFETR)
Object type
Payload
Rocket body
Debris
Shape & HBR
Box + 2 Pan, 17.7 m
Radar Cross Section
36.964 m², Large (>1 m²)

Expand to show TLE details & history
Last TLE update: 2 days ago

TLE from 2 days ago
0 STARLINK-34238
1 65415U 25192M   26170.27522766  .00019863  00000-0  68086-3 0  9991
2 65415  53.1585 120.7614 0001111  88.4311 271.6817 15.30204979 44932
Epoch: 2026-06-19T06:36Z
TLE epoch observation values (Epoch: 2026-06-19T06:36:19.669Z)
Latitude
-0.00004°
Longitude
114.17288°
Altitude
476.077 km
Speed
7.629 km/s
True Right ascension
08h 03m 02s
True Declination
0° 00' 00"
Sunlit
Object was in daylight at epoch
Visualization orbit readout
Latitude
Unknown
Longitude
Unknown
Altitude
Unknown
Speed
Unknown
Apparent Right ascension
Unknown
Apparent Declination
Unknown
Sunlit
N/A
Visualization observer readout
Local Sidereal Time
08:33:08
Azimuth
Unknown
Elevation
Unknown
Doppler factor
Unknown
Orbital elements
Apogee altitude
476.218 km
Perigee altitude
474.695 km
Semi-major axis
6,853.594 km
Eccentricity
0.00011
Inclination
53.1585°
RAAN
120.7614°
Arg. of periapsis
88.4311°
True anomaly
271.66897°
Mean anomaly
271.6817°
Eccentric anomaly
271.67534°
Mean motion
3.8253 °/min
Orbital period
94.11 mins
BSTAR
0.00068086
Loading maneuver chart data...
Computing Atmospheric mass density...
Loading historical data...
Loading historical data...
Loading historical data...
Loading historical data...
Loading historical data...
Loading historical data...
Loading historical data...

Documentation

Showing up to 5 results
|